Pittsburgh Allegheny Co., PA

4:15 AM EDT on April 23, 2017 (GMT -0400)
Allegheny County

Weather History for KAGC - July, 2013

Change the Weather History Date:

Wednesday, July 24, 2013

  Actual Average Record
Temperature  
Mean Temperature 66 °F -  
Max Temperature 72 °F 83 °F 96 °F (1991)
Min Temperature 60 °F 61 °F 51 °F (1993)
Cooling Degree Days 1    
Growing Degree Days 16 (Base 50)    
Moisture  
Dew Point 57 °F    
Average Humidity 77    
Maximum Humidity 100    
Minimum Humidity 53    
Precipitation  
Precipitation 0.00 in - - ()
Sea Level Pressure  
Sea Level Pressure 29.88 in    
Wind  
Wind Speed 5 mph (NNW)    
Max Wind Speed 10 mph    
Max Gust Speed 18 mph    
Visibility 10 miles    
Events      
Averages and records for this station are not official NWS values.
T = Trace of Precipitation, MM = Missing Value Source: NWS Daily Summary

Daily Weather History Graph

Daily Weather History Graph

Search for Another Location

Airport or City:

Trip Planner

Search our weather history database for the weather conditions in past years. The results will help you decide how hot, cold, wet, or windy it might be!

Date:

Astronomy

Jul. 24, 2013 Rise Set
Actual Time 6:10 AM EDT 8:41 PM EDT
Civil Twilight 5:38 AM EDT 9:12 PM EDT
Nautical Twilight 4:59 AM EDT 9:51 PM EDT
Astronomical Twilight 4:16 AM EDT 10:35 PM EDT
Moon 9:46 PM EDT (7/24) 8:28 AM EDT (7/24)
Length of Visible Light 15h 34m
Length of Day
14h 31m
Waning Gibbous, 95% of the Moon is Illuminated
Jul 24
Waning Gibbous
Jul 29
Last Quarter
Aug 6
New
Aug 14
First Quarter
Aug 20
Full

Hourly Weather History & Observations

Time (EDT) Temp. Dew Point Humidity Pressure Visibility Wind Dir Wind Speed Gust Speed Precip Events Conditions
12:53 AM 64.9 °F 63.0 °F 93% 29.78 in 10.0 mi Calm Calm - N/A   Scattered Clouds
1:32 AM 66.2 °F 64.4 °F 94% 29.80 in 10.0 mi West 3.5 mph - N/A   Overcast
1:51 AM 66.2 °F 64.4 °F 94% 29.79 in 10.0 mi West 5.8 mph - N/A   Overcast
1:53 AM 66.0 °F 64.0 °F 93% 29.78 in 10.0 mi West 4.6 mph - N/A   Overcast
2:25 AM 64.4 °F 64.4 °F 100% 29.79 in 7.0 mi WNW 4.6 mph - N/A   Overcast
2:53 AM 66.0 °F 64.0 °F 93% 29.78 in 6.0 mi NNW 8.1 mph - N/A   Overcast
3:09 AM 64.4 °F 64.4 °F 100% 29.78 in 8.0 mi NNW 6.9 mph - N/A   Mostly Cloudy
3:26 AM 64.4 °F 64.4 °F 100% 29.78 in 6.0 mi NNW 8.1 mph 16.1 mph N/A   Mostly Cloudy
3:53 AM 64.9 °F 63.0 °F 93% 29.77 in 10.0 mi NNW 9.2 mph - N/A   Overcast
4:43 AM 64.4 °F 60.8 °F 88% 29.80 in 10.0 mi NNW 8.1 mph - N/A   Overcast
4:53 AM 64.0 °F 61.0 °F 90% 29.80 in 10.0 mi NNW 4.6 mph - N/A   Overcast
5:24 AM 62.6 °F 57.2 °F 82% 29.81 in 10.0 mi North 10.4 mph 16.1 mph N/A   Overcast
5:53 AM 62.1 °F 57.0 °F 84% 29.82 in 10.0 mi NNW 10.4 mph 18.4 mph N/A   Mostly Cloudy
6:53 AM 61.0 °F 55.9 °F 83% 29.86 in 10.0 mi NNW 8.1 mph 16.1 mph N/A   Clear
7:53 AM 62.1 °F 55.9 °F 80% 29.89 in 10.0 mi Variable 4.6 mph - N/A   Mostly Cloudy
8:53 AM 63.0 °F 54.0 °F 72% 29.91 in 10.0 mi NNW 10.4 mph 16.1 mph N/A   Scattered Clouds
9:06 AM 64.4 °F 55.4 °F 73% 29.91 in 10.0 mi North 5.8 mph 16.1 mph N/A   Mostly Cloudy
9:34 AM 64.4 °F 55.4 °F 73% 29.91 in 10.0 mi NNW 8.1 mph - N/A   Mostly Cloudy
9:44 AM 64.4 °F 55.4 °F 73% 29.92 in 10.0 mi Variable 3.5 mph - N/A   Mostly Cloudy
9:51 AM 64.4 °F 53.6 °F 68% 29.92 in 10.0 mi North 9.2 mph 17.3 mph N/A   Mostly Cloudy
9:53 AM 64.0 °F 54.0 °F 70% 29.92 in 10.0 mi NNW 8.1 mph 17.3 mph N/A   Mostly Cloudy
10:53 AM 64.9 °F 54.0 °F 68% 29.93 in 10.0 mi North 9.2 mph 16.1 mph N/A   Overcast
11:53 AM 64.0 °F 53.1 °F 67% 29.94 in 10.0 mi North 6.9 mph 16.1 mph N/A   Overcast
12:53 PM 66.9 °F 53.1 °F 61% 29.94 in 10.0 mi Variable 3.5 mph - N/A   Overcast
1:53 PM 68.0 °F 53.1 °F 59% 29.94 in 10.0 mi NNW 8.1 mph - N/A   Overcast
2:53 PM 68.0 °F 55.0 °F 63% 29.94 in 10.0 mi Variable 3.5 mph - N/A   Overcast
3:53 PM 69.1 °F 53.1 °F 57% 29.94 in 10.0 mi Calm Calm - N/A   Mostly Cloudy
4:53 PM 71.1 °F 53.1 °F 53% 29.94 in 10.0 mi North 6.9 mph - N/A   Scattered Clouds
5:53 PM 70.0 °F 54.0 °F 57% 29.95 in 10.0 mi Variable 4.6 mph - N/A   Scattered Clouds
6:53 PM 66.9 °F 54.0 °F 63% 29.95 in 10.0 mi North 5.8 mph - N/A   Scattered Clouds
7:53 PM 64.9 °F 54.0 °F 68% 29.96 in 10.0 mi North 5.8 mph - N/A   Clear
8:53 PM 64.0 °F 53.1 °F 67% 29.97 in 10.0 mi North 4.6 mph - N/A   Clear
9:53 PM 61.0 °F 53.1 °F 75% 29.99 in 10.0 mi North 6.9 mph - N/A   Clear
10:53 PM 61.0 °F 53.1 °F 75% 30.00 in 10.0 mi NNW 5.8 mph - N/A   Clear
11:53 PM 60.1 °F 51.1 °F 72% 30.01 in 10.0 mi North 8.1 mph - N/A   Clear